GFSSGP_500_spd_159.txt.gz
Wind_Speed
46 44 42 40 41 42 38 32 32 28 29 31 32 27 16 24 18 23 22 22 21 19 20 17 16 16 16 15 12 10 10 10 9 8 7 7 6 5 5 4 4 2 1 2 3 4 4 4 6
43 48 48 47 49 47 40 31 32 29 37 37 40 32 23 21 32 25 24 24 20 21 23 20 19 18 18 18 15 13 13 12 11 9 8 7 5 4 4 3 4 2 3 3 4 5 6 7 8
38 43 49 56 56 53 45 35 30 27 37 46 37 37 32 32 27 27 20 21 19 22 23 23 18 17 17 19 16 15 13 13 12 11 9 7 6 4 4 4 4 3 3 5 6 7 8 10 12
40 40 46 54 58 54 49 43 26 26 39 43 38 39 39 36 30 29 26 20 19 20 19 12 13 13 15 17 14 14 13 13 12 9 8 7 6 6 6 5 6 6 6 6 8 10 11 12 13
46 46 47 48 48 51 54 49 48 39 46 40 39 40 40 37 37 34 30 25 22 22 21 23 15 13 13 12 12 14 14 13 12 10 8 7 6 7 7 8 7 7 8 9 10 13 14 16 17
51 52 54 50 44 43 49 56 54 52 48 42 40 39 39 42 41 37 32 27 23 22 23 23 19 17 18 15 14 14 14 14 12 11 9 7 7 8 7 6 7 9 11 12 14 16 17 18 19
52 54 56 54 50 46 45 50 59 58 52 43 40 39 40 44 41 35 33 30 23 20 24 26 21 20 18 18 14 14 13 12 10 8 8 8 8 7 8 9 11 14 15 16 16 17 19 19 21
57 58 58 57 54 54 46 45 50 62 56 51 48 45 38 53 40 31 40 35 25 23 24 23 23 24 24 22 18 15 11 8 6 9 8 8 10 10 13 13 14 16 17 17 18 21 22 24 26
62 63 63 57 56 57 53 51 44 54 65 60 55 49 45 56 38 38 35 36 28 28 29 31 30 28 27 24 23 16 11 8 8 10 11 12 13 14 16 16 17 17 18 20 21 23 26 27 29
69 69 64 61 60 61 56 56 56 53 55 64 65 59 49 55 44 42 37 37 30 32 34 32 31 28 28 24 22 17 13 11 11 12 13 15 16 16 17 17 18 19 21 22 24 27 29 30 33
70 75 70 67 68 67 66 65 63 62 55 55 65 65 53 57 48 43 35 36 34 32 32 35 30 30 25 23 23 22 18 16 14 15 18 17 17 17 18 19 20 22 24 26 28 31 32 34 36
70 73 74 75 76 75 73 72 66 67 57 56 56 66 62 64 50 48 42 43 38 35 31 31 29 29 28 28 27 26 24 21 17 19 20 18 18 19 21 22 23 25 28 30 32 35 37 38 40
68 70 75 75 79 80 77 75 70 68 64 63 59 64 70 68 58 53 49 48 46 40 35 32 32 30 28 28 29 30 29 28 24 22 22 21 21 23 24 25 27 30 32 34 37 40 41 42 44
53 65 72 77 80 78 82 82 75 67 69 68 64 62 70 70 66 59 54 52 51 48 40 36 37 33 29 27 29 30 30 31 30 25 25 25 25 27 28 30 32 33 36 40 42 44 45 45 47
40 47 59 72 80 81 80 88 76 69 71 69 67 64 65 72 71 63 58 56 54 48 47 45 42 39 36 32 32 31 31 31 29 28 28 29 29 30 31 32 35 37 40 43 46 47 48 48 50
40 46 50 54 64 78 79 88 77 77 74 71 70 68 62 64 70 70 65 59 58 51 48 47 44 42 41 35 35 34 35 32 29 30 31 31 31 33 36 36 39 40 43 45 47 46 48 50 51
32 31 33 37 38 42 67 85 81 76 78 73 71 70 64 62 64 69 70 62 56 52 51 49 45 44 40 37 41 38 37 35 32 32 32 32 34 37 40 41 41 44 44 45 46 45 49 54 55
21 21 22 27 31 37 53 83 75 78 77 77 74 72 66 63 62 64 69 64 58 54 53 52 48 46 44 41 45 41 37 36 36 36 37 36 37 40 42 43 44 46 46 47 48 50 52 56 57
26 27 31 34 32 29 41 43 61 78 77 78 75 73 69 65 62 59 62 68 62 62 59 54 53 50 47 45 44 39 38 40 39 42 42 41 39 44 45 46 45 45 47 48 48 48 48 57 61
29 29 30 30 31 34 38 42 41 48 77 78 78 76 68 64 63 60 56 60 64 66 65 58 55 51 47 46 44 41 42 43 42 42 42 43 44 47 47 45 44 44 46 46 47 51 52 55 59
30 30 28 31 27 30 35 39 45 47 67 77 78 79 70 66 64 61 57 56 60 64 63 63 59 53 51 50 43 43 45 44 42 43 46 47 47 47 50 46 48 49 51 50 49 51 52 52 44
32 26 28 29 28 32 30 37 40 55 55 80 82 81 71 68 65 62 59 53 56 59 60 58 61 53 55 51 45 44 44 44 42 44 48 56 55 43 42 44 45 48 52 51 47 56 53 32 15
25 24 26 28 29 30 31 36 32 43 52 67 83 79 73 69 65 61 60 54 47 53 59 54 52 54 49 52 50 46 41 42 39 46 49 57 44 40 44 43 45 46 44 48 42 27 17 10 9
23 24 24 23 25 33 29 33 34 41 49 73 82 76 70 65 63 62 63 58 48 51 57 62 60 61 59 57 54 46 41 44 49 51 48 46 38 39 42 43 40 34 35 34 17 15 19 17 15
23 19 21 22 24 23 20 26 28 27 40 59 74 73 70 62 62 63 64 59 48 48 57 61 65 65 60 50 46 40 42 52 46 48 40 36 36 33 31 33 31 29 30 26 16 14 20 26 28
20 20 20 20 17 21 18 23 19 36 38 37 45 70 70 62 61 63 62 56 51 48 53 59 63 63 56 47 40 42 47 40 42 39 36 34 25 22 23 23 22 16 12 13 12 14 20 27 28
16 19 14 23 20 22 18 22 16 39 40 41 39 42 61 61 59 61 59 52 51 51 46 55 58 57 51 47 48 44 45 45 33 34 29 22 21 19 19 14 15 16 18 19 19 21 24 27 30
15 17 20 21 16 18 12 18 15 42 37 39 38 53 56 62 59 59 58 56 59 49 48 52 53 51 50 47 48 52 44 35 35 28 21 20 17 18 14 15 16 17 18 21 22 23 25 27 31
20 20 19 20 17 14 16 13 24 23 40 36 40 61 68 66 61 59 58 56 61 51 50 50 54 53 52 52 49 46 37 36 29 19 19 17 19 17 15 16 17 19 21 22 23 24 26 28 31
15 18 21 19 17 11 17 22 28 30 32 46 50 63 66 65 51 53 61 63 40 48 52 50 53 54 54 51 44 39 34 30 22 20 19 17 16 17 17 19 19 19 21 22 24 25 27 30 32

GFSSGP_500_spd_162.txt.gz
Wind_Speed
41 43 41 39 41 42 36 28 25 29 21 18 17 17 20 11 21 28 14 18 16 16 15 18 17 16 16 16 15 12 11 11 10 9 9 8 7 6 6 6 4 3 3 3 3 3 4 6 7
35 40 47 46 49 46 39 30 29 27 31 22 33 31 26 11 32 27 16 16 16 16 17 19 21 22 20 18 17 15 13 13 12 11 10 9 7 7 7 6 4 4 5 4 4 5 6 8 9
32 36 42 50 54 52 44 35 31 26 19 28 41 38 36 35 36 26 20 25 19 17 19 22 24 22 23 21 21 20 19 16 14 13 12 9 7 7 7 5 4 4 4 6 6 6 6 9 10
37 38 40 45 48 48 49 40 38 18 20 33 41 40 41 42 42 26 22 23 22 17 18 23 22 26 23 21 20 21 19 18 16 14 12 11 9 9 9 7 5 5 5 6 7 9 10 11 12
42 45 46 44 40 40 46 47 41 36 25 28 31 38 38 43 39 34 29 27 24 19 20 22 19 21 19 20 18 18 18 17 16 13 13 13 9 9 9 7 7 6 6 8 10 11 12 13 14
45 46 50 48 44 38 39 44 50 48 35 27 39 23 30 47 39 38 34 34 27 23 24 24 24 25 23 18 19 19 18 17 15 14 12 12 10 9 8 7 7 8 9 11 12 12 14 14 16
50 50 50 49 47 44 41 40 44 52 51 30 31 37 26 38 46 39 37 39 32 30 28 27 25 24 22 20 20 18 16 14 14 13 12 11 10 9 8 9 8 11 12 13 13 15 16 18 20
54 55 56 53 50 48 45 37 31 44 59 46 36 38 25 43 54 40 36 40 38 33 30 30 27 25 22 19 17 14 12 10 9 9 9 10 9 10 10 11 12 14 15 15 16 17 19 22 23
61 61 61 57 55 52 48 48 40 26 35 49 46 50 32 52 53 45 37 35 43 31 28 31 26 21 20 20 17 15 13 12 11 10 10 9 11 12 14 14 14 16 17 18 19 21 22 24 27
66 68 64 61 60 59 56 52 50 37 28 37 45 56 41 55 56 53 35 35 32 37 29 28 30 26 27 29 19 16 17 15 9 8 9 10 13 14 15 15 15 17 19 22 22 24 26 29 30
64 69 67 67 66 65 63 62 52 48 39 36 51 59 61 58 57 52 42 34 41 42 37 29 33 29 33 29 27 24 20 18 14 13 13 14 15 16 17 16 18 19 22 24 25 28 29 33 36
62 66 69 71 70 72 73 70 70 60 56 42 41 49 56 59 47 55 46 38 42 40 39 34 36 34 33 29 25 23 23 22 20 19 15 16 18 18 18 20 20 21 25 27 30 32 36 39 42
54 62 66 68 71 75 73 76 75 72 67 58 46 41 51 61 59 59 49 44 46 42 43 36 37 38 32 32 26 24 25 26 24 21 21 20 21 22 22 23 23 27 28 32 34 38 39 42 43
43 50 59 66 70 73 75 76 77 74 71 72 65 58 60 58 61 52 58 49 45 45 42 37 38 40 34 34 28 24 24 24 25 26 26 25 23 23 24 27 27 30 33 34 36 40 40 43 44
32 36 38 52 64 67 71 77 80 77 73 75 74 70 67 61 62 54 61 56 52 51 49 51 34 33 36 36 31 26 25 24 24 25 26 26 25 26 28 29 31 33 35 38 41 43 45 46 46
33 37 39 37 43 54 55 75 78 77 80 76 73 70 68 64 62 62 65 63 58 55 55 40 39 38 39 39 34 30 29 28 27 27 28 26 27 29 28 30 34 37 39 41 43 46 48 47 47
32 30 31 35 37 40 43 65 76 74 79 82 78 73 69 67 65 63 67 68 61 57 60 48 47 43 41 39 36 35 33 30 29 27 29 30 29 30 30 33 38 42 42 45 48 50 50 46 45
17 22 28 29 23 32 37 35 51 50 71 80 81 77 71 68 65 62 58 63 67 64 61 52 48 46 44 42 40 40 35 31 33 30 30 32 33 33 36 40 43 44 46 49 49 49 49 48 50
25 27 30 32 24 34 38 42 50 30 36 66 79 78 76 70 66 62 59 56 64 67 62 54 51 50 48 46 42 40 35 34 35 33 32 32 33 35 39 42 41 46 49 51 49 53 57 55 52
29 32 27 26 27 28 33 35 38 38 39 40 69 77 78 75 70 62 62 60 61 67 65 55 51 54 51 48 44 41 37 38 37 35 33 36 37 37 40 42 45 51 52 49 50 49 46 46 43
33 35 30 29 27 30 33 39 42 48 46 53 50 72 75 77 71 63 63 64 56 62 73 59 56 49 47 48 46 43 43 41 38 37 36 36 39 35 37 45 47 49 49 42 45 45 41 37 24
33 31 33 32 31 31 26 37 32 28 41 52 54 62 76 78 75 64 63 63 57 55 66 64 60 60 52 52 52 49 43 41 42 38 40 43 35 36 41 47 45 34 36 40 40 35 33 26 17
26 29 30 30 32 32 31 34 34 31 40 45 54 73 72 73 74 66 64 62 58 55 58 61 60 67 63 56 50 48 43 44 43 39 39 37 39 43 46 42 38 37 36 36 27 31 27 20 18
26 26 29 29 28 32 15 28 25 30 33 35 53 68 78 76 76 69 64 62 59 58 49 55 54 60 53 58 59 61 50 49 43 41 33 34 38 43 37 39 37 36 32 28 26 24 13 16 21
21 23 25 28 27 28 20 29 28 27 33 38 36 59 72 79 76 70 65 64 62 56 45 50 57 55 56 59 59 52 42 37 47 34 30 36 41 37 39 35 33 28 20 14 14 16 18 19 23
23 21 25 27 22 26 28 32 29 13 21 43 38 53 64 79 76 72 65 62 63 54 46 46 49 55 58 58 55 49 44 44 38 24 29 38 34 36 31 31 24 17 12 16 20 21 24 27 27
25 23 21 28 26 30 20 20 26 16 19 41 40 45 57 76 71 66 60 61 61 54 49 42 42 49 51 52 52 42 40 37 32 32 37 39 35 29 31 21 18 16 16 18 21 24 26 27 27
27 19 20 28 28 26 17 21 24 9 17 40 35 32 27 49 66 64 58 61 61 49 50 46 42 46 51 51 48 47 40 34 37 38 34 38 28 30 22 16 18 16 18 19 22 25 26 27 28
20 19 21 22 23 23 23 18 22 16 26 30 36 42 35 39 60 63 57 62 57 51 54 51 44 48 52 54 51 49 45 44 36 24 38 31 28 23 16 15 18 17 19 21 21 23 25 27 29
15 19 22 26 23 25 23 26 17 17 34 25 27 43 35 33 60 60 58 60 54 58 56 58 48 50 56 55 53 53 43 46 17 24 28 28 27 20 17 18 19 18 20 21 22 26 28 29 31

GFSSGP_500_spd_165.txt.gz
Wind_Speed
36 43 43 40 41 41 30 21 20 21 23 17 6 25 34 18 28 18 15 14 9 11 14 12 12 13 15 14 13 12 13 12 10 9 7 5 4 5 5 5 5 4 4 4 4 4 4 5 6
28 36 43 48 47 45 35 25 24 19 22 23 14 23 33 35 29 11 4 9 9 13 14 13 15 15 17 17 15 13 14 15 12 11 9 8 7 6 5 5 5 5 4 3 3 4 5 6 7
31 32 35 44 48 47 41 30 28 25 24 21 19 30 33 41 39 29 11 10 12 12 16 15 16 17 19 18 19 18 17 18 16 14 12 10 9 8 6 5 6 5 5 4 3 3 5 7 8
36 38 37 40 40 39 43 36 34 30 32 27 18 30 38 47 45 40 28 16 21 19 17 17 19 19 20 17 22 21 20 21 19 16 14 11 10 11 8 7 7 6 6 5 5 6 7 8 9
38 40 41 40 35 33 37 38 41 38 31 21 20 28 41 46 47 37 32 25 22 21 19 19 20 21 21 19 25 23 22 21 20 17 14 13 11 10 9 6 7 7 7 7 7 8 10 11 12
44 44 44 41 39 36 35 32 37 42 32 31 23 21 43 44 39 37 32 27 25 26 23 20 20 20 22 18 19 19 21 21 20 17 15 13 12 10 8 7 9 8 8 9 11 11 11 13 15
47 48 48 46 42 41 40 37 33 35 39 40 27 19 35 38 42 41 35 29 28 32 29 24 22 22 22 21 20 22 20 20 18 16 14 13 12 12 10 9 9 10 12 12 12 13 14 16 18
51 53 53 51 49 45 40 41 39 38 45 43 31 25 33 46 41 39 44 32 33 36 34 31 28 26 26 24 23 22 18 17 15 15 13 12 11 10 9 10 11 12 13 13 14 16 18 19 22
57 58 56 54 53 50 44 45 45 44 45 52 43 30 30 43 47 44 54 40 34 36 42 37 33 31 27 25 21 20 16 14 13 12 11 10 9 9 11 12 15 15 14 14 17 19 22 24 26
59 61 59 58 57 58 53 52 48 49 49 47 58 30 35 47 52 43 51 51 30 33 42 33 34 31 29 23 20 19 17 15 12 11 13 9 7 8 9 13 13 15 16 17 19 22 26 28 29
60 63 62 63 64 64 62 60 56 57 53 46 46 46 43 50 52 48 48 57 36 30 41 32 39 34 29 26 26 25 23 16 16 15 9 10 11 12 12 16 14 17 17 19 21 24 28 30 32
62 65 64 65 67 68 69 67 65 62 58 54 50 48 48 51 55 53 51 58 40 35 34 33 35 36 32 29 29 29 29 26 20 18 19 17 15 13 15 16 19 19 19 22 24 27 30 34 37
53 57 62 66 68 70 70 72 70 67 63 62 53 52 58 59 49 42 43 65 56 43 37 35 35 32 30 28 30 29 22 22 24 19 18 16 17 19 18 20 22 21 22 25 28 31 35 38 39
40 44 50 54 60 67 71 73 73 69 62 69 60 58 66 62 58 42 40 42 62 52 45 42 43 38 34 36 35 31 25 22 17 17 17 19 23 22 21 19 22 22 25 28 31 34 36 40 42
35 38 41 43 48 57 58 66 66 67 66 71 70 63 69 64 71 49 45 43 59 52 49 51 50 42 38 42 36 33 31 27 23 17 16 17 19 21 22 22 22 23 27 31 35 38 39 44 47
25 26 28 22 30 35 40 58 65 64 62 66 74 71 72 76 68 62 58 57 63 68 57 56 49 49 44 51 48 32 31 26 22 18 16 18 22 23 23 23 24 28 34 38 39 41 43 47 51
29 28 30 29 27 30 36 44 55 66 65 68 71 77 78 79 71 71 66 60 66 71 64 54 51 53 43 39 43 31 35 29 24 20 19 22 24 24 24 27 29 33 36 39 40 42 45 49 50
26 30 32 32 24 23 32 41 45 54 61 68 74 76 78 78 71 67 74 68 67 66 73 59 57 35 43 41 35 35 37 32 26 24 24 27 27 26 26 28 30 34 37 40 43 45 47 48 44
21 22 22 26 26 28 38 39 35 42 47 68 75 80 77 76 70 64 67 71 66 57 69 73 49 42 47 41 42 39 37 35 29 27 29 30 29 28 28 31 33 33 34 40 44 45 41 39 39
25 28 24 27 26 32 34 35 35 41 43 44 59 81 80 76 76 64 62 64 63 56 58 64 63 39 56 36 37 39 40 38 31 33 32 31 30 30 30 32 36 38 38 41 37 33 33 34 29
24 31 29 33 31 34 33 36 35 33 45 46 47 60 83 84 80 76 60 61 58 57 56 55 59 55 52 32 41 44 48 40 36 35 33 33 30 30 33 35 32 37 33 32 33 30 29 30 27
23 23 33 36 37 38 34 39 34 29 35 43 47 46 57 80 81 80 74 64 59 58 57 52 58 59 54 49 45 56 53 40 36 38 37 32 30 31 31 30 33 31 28 30 32 29 26 25 24
25 25 25 29 32 33 33 38 24 30 34 36 36 48 53 59 78 80 76 71 61 61 59 53 55 58 56 54 53 57 58 37 45 42 37 32 31 31 31 29 30 31 31 32 29 21 21 22 20
23 26 27 29 29 35 18 28 14 21 24 30 33 40 53 50 61 76 76 71 65 64 62 53 49 55 59 57 56 58 36 43 44 41 37 38 34 32 22 29 27 29 30 24 18 13 14 19 22
25 22 24 26 32 30 20 27 23 25 28 23 30 33 55 50 58 70 73 70 68 67 62 53 48 51 57 61 55 57 60 43 45 38 46 40 38 20 21 27 26 28 23 15 14 19 19 22 25
23 29 26 32 32 32 29 29 17 21 24 32 26 32 57 62 64 66 64 64 72 66 60 53 49 48 50 54 53 59 59 44 36 40 41 21 31 20 23 25 25 20 15 15 17 20 22 24 26
23 34 28 28 34 33 30 24 26 29 28 23 25 36 57 67 63 66 66 64 72 66 59 54 48 45 40 44 50 54 61 60 56 37 31 25 19 16 18 20 20 16 18 19 20 21 22 25 26
26 20 30 35 34 34 27 24 24 24 27 21 27 47 58 70 61 65 63 62 70 64 57 52 46 43 39 41 49 54 54 51 41 34 32 30 24 16 17 18 15 15 18 21 21 22 23 26 29
21 23 24 24 30 31 31 24 21 26 20 25 22 46 57 70 58 64 66 65 68 63 55 49 49 47 44 46 47 47 50 47 40 41 34 30 15 17 14 17 13 16 20 22 22 23 25 29 32
16 16 23 27 25 38 36 38 18 25 22 24 18 42 52 55 55 61 66 63 65 59 51 52 52 50 50 47 43 46 46 47 43 43 28 19 19 15 16 15 16 20 21 21 23 25 28 32 32

GFSSGP_500_spd_168.txt.gz
Wind_Speed
39 43 44 40 39 38 25 17 18 17 17 16 7 11 14 28 20 19 15 11 17 8 6 7 10 11 12 11 11 9 8 10 10 9 8 6 4 2 3 3 4 4 5 5 5 3 4 5 6
30 36 41 45 47 45 29 22 21 20 21 24 15 13 17 25 22 16 9 10 11 4 8 9 10 11 13 13 11 10 9 10 10 12 10 9 7 5 5 5 5 4 5 5 6 7 6 6 7
31 31 35 42 45 45 37 28 26 23 28 29 25 17 22 23 27 23 20 6 6 9 9 11 13 12 14 14 15 13 12 13 13 13 15 13 10 8 8 8 6 6 7 8 8 7 7 8 10
33 35 37 40 38 37 37 36 36 32 30 32 31 21 21 23 23 28 31 27 15 20 14 12 13 15 16 18 18 14 14 16 15 17 18 16 12 11 9 9 9 8 8 8 7 7 8 10 11
37 38 39 37 36 33 34 30 43 38 31 36 35 25 26 20 23 32 35 27 25 22 20 15 14 17 16 17 16 16 15 18 21 17 18 16 14 11 11 10 10 8 8 8 9 9 9 10 13
42 43 42 40 35 35 37 30 35 44 37 38 36 25 31 22 21 29 35 27 27 24 25 18 17 17 19 18 18 15 18 20 19 19 16 14 13 13 12 10 9 7 7 9 10 10 10 12 15
45 46 46 44 41 40 39 37 36 37 46 42 39 34 39 38 22 29 37 30 28 26 28 23 18 18 21 21 19 17 15 17 16 17 15 14 13 12 12 10 8 7 9 10 10 10 12 14 17
44 47 47 47 47 45 42 42 43 42 43 51 44 39 46 35 30 32 36 37 27 30 27 25 23 21 22 19 20 19 20 20 18 16 15 15 12 12 11 9 8 9 10 11 12 13 15 16 19
46 51 50 47 49 49 46 47 48 50 42 55 51 46 37 39 41 39 39 43 31 33 31 26 27 27 26 24 24 22 22 21 18 16 14 12 11 8 8 10 11 11 10 11 12 15 17 20 23
57 57 55 52 54 56 51 54 51 55 49 51 58 53 44 52 45 48 41 45 42 31 36 34 27 31 31 27 26 25 21 19 17 15 13 12 10 7 6 8 10 10 13 13 14 17 19 22 25
60 65 61 60 61 62 60 59 56 60 54 50 65 58 57 54 30 44 46 45 49 38 40 40 32 32 33 31 27 24 20 19 19 17 12 10 11 10 9 10 11 14 15 15 17 20 23 25 27
60 63 66 67 67 67 67 66 63 64 57 55 62 68 67 60 49 31 42 49 52 47 38 42 34 32 29 34 31 31 27 23 21 21 18 14 11 11 14 17 14 15 18 17 19 21 25 28 30
49 55 62 64 65 69 71 72 70 69 62 58 62 68 73 71 47 51 32 52 51 53 43 39 34 39 35 34 32 33 31 25 22 23 20 16 19 16 17 16 17 17 22 20 21 22 28 32 34
34 40 45 51 56 61 63 67 72 65 65 61 64 65 73 76 69 37 41 43 55 56 46 42 38 38 39 39 39 40 35 28 21 29 26 20 19 22 22 19 16 18 19 21 25 28 32 35 36
27 31 35 36 41 48 53 64 67 66 62 64 68 69 63 73 78 82 72 66 49 53 56 48 45 45 41 43 44 42 34 29 25 23 22 21 22 22 19 16 15 17 20 23 27 32 35 37 39
20 22 21 23 33 34 37 54 59 60 65 66 75 68 67 73 68 79 83 84 77 63 36 57 50 50 45 42 43 41 40 33 28 28 25 24 22 20 20 19 18 20 22 26 31 34 38 39 41
25 27 26 26 29 31 35 39 45 57 62 66 77 76 72 71 73 69 67 75 75 69 62 53 58 52 50 45 44 45 45 36 33 31 26 24 24 21 18 19 22 24 26 30 35 38 39 39 43
26 28 25 28 30 37 40 39 37 41 50 63 69 85 76 73 77 76 73 74 74 71 61 58 62 54 56 53 49 48 46 38 38 33 29 28 26 22 22 24 24 26 28 31 33 37 40 41 40
23 23 23 21 23 39 41 39 42 39 45 50 63 76 84 75 76 78 77 79 76 73 64 58 50 53 49 55 51 45 45 45 41 34 32 30 27 23 24 26 26 27 28 33 33 36 37 34 28
21 26 19 22 25 34 35 36 34 32 39 41 54 70 85 82 73 72 75 82 79 75 63 58 48 46 46 50 51 52 55 47 45 38 35 33 29 25 26 26 29 26 27 28 29 29 30 31 29
20 23 25 25 25 37 38 37 30 25 33 36 39 61 77 88 82 76 75 72 82 78 65 56 45 48 46 56 45 45 41 46 37 38 38 34 28 28 29 31 26 25 25 25 27 28 26 26 24
27 22 27 30 27 32 37 44 33 31 31 32 34 36 68 84 88 82 78 73 80 82 69 59 50 49 43 45 54 50 47 46 44 44 36 34 31 32 33 26 23 24 24 25 25 23 21 20 17
24 25 30 29 33 32 35 42 24 30 35 32 31 34 42 78 91 85 84 78 80 82 74 63 49 45 46 44 47 43 36 51 55 52 47 35 33 37 33 22 23 24 22 22 19 17 14 14 15
25 27 27 24 28 36 25 29 6 13 17 29 36 36 38 43 93 92 85 82 81 78 72 67 55 51 45 42 44 44 48 60 42 32 40 37 37 37 31 26 20 23 21 15 14 12 15 20 22
26 25 31 30 30 30 22 32 24 12 17 23 29 30 38 44 55 98 89 85 81 80 71 66 57 49 48 42 44 49 41 43 33 40 41 46 38 36 33 35 24 24 17 12 12 15 18 21 23
23 26 29 41 37 31 31 34 23 19 26 24 26 34 31 34 50 67 99 86 87 83 77 69 58 50 45 41 41 44 50 50 40 48 36 40 33 36 25 18 19 19 13 13 15 16 20 23 25
28 26 26 31 35 38 38 32 28 27 27 28 28 30 33 39 42 55 80 98 91 89 79 68 60 50 48 44 43 46 49 51 58 41 51 36 16 7 4 10 14 13 12 15 16 19 22 24 26
25 24 26 32 38 42 41 35 28 27 26 27 28 26 28 33 43 57 63 79 94 85 77 68 59 50 49 45 43 43 46 45 29 43 47 39 24 11 15 16 15 12 14 16 17 20 22 25 27
23 25 23 25 31 40 40 38 33 31 28 32 27 29 28 31 45 61 68 66 78 77 73 68 61 56 53 48 45 45 46 43 44 44 40 40 27 11 12 13 13 13 17 18 18 20 24 27 31
21 18 21 25 28 32 33 32 28 29 32 28 32 22 33 37 52 72 74 70 74 77 74 70 65 57 54 50 49 45 41 38 40 45 34 32 22 19 14 16 15 15 19 19 20 22 25 29 34

GFSSGP_500_spd_171.txt.gz
Wind_Speed
41 42 40 36 36 34 23 13 13 18 20 25 31 31 23 22 26 9 8 9 15 19 10 9 13 9 6 5 5 4 6 5 5 7 6 3 2 2 3 2 3 4 3 4 4 5 7 8 8
31 35 40 43 45 40 28 20 15 19 27 27 24 26 25 22 21 12 1 4 23 20 17 11 11 6 6 8 7 7 8 6 6 6 9 7 4 4 5 5 5 5 5 4 5 6 7 7 8
31 32 35 39 43 41 34 28 25 26 32 31 27 25 31 26 24 22 10 16 22 19 16 12 11 8 8 9 9 9 9 10 9 9 10 10 7 6 7 6 6 7 7 7 7 6 7 7 7
32 34 37 39 37 34 27 34 39 34 35 38 36 30 34 31 32 24 23 18 21 11 11 13 12 10 11 10 11 11 11 11 12 13 13 11 9 8 9 9 9 9 8 7 6 7 7 8 9
36 36 37 36 36 33 28 28 40 42 40 41 42 40 36 31 29 30 30 27 26 23 19 18 16 15 16 12 11 11 12 13 12 15 14 11 9 9 9 9 10 9 8 7 7 8 8 9 10
40 41 41 37 36 36 34 31 36 42 48 44 47 45 41 34 33 32 36 33 31 27 22 21 23 18 17 14 12 12 11 13 14 13 12 11 9 10 10 9 9 8 8 8 8 9 9 9 13
40 43 43 43 42 42 38 37 39 42 47 49 48 51 49 40 36 37 39 40 32 27 25 23 25 24 18 16 16 15 12 12 11 12 12 11 10 10 10 10 10 9 10 10 9 9 9 11 15
39 41 44 45 46 47 44 44 42 44 42 51 54 54 49 51 47 39 41 43 41 30 29 25 24 24 22 19 19 16 13 12 13 15 13 12 11 11 11 11 10 9 12 12 12 11 13 14 17
45 48 46 45 45 48 47 50 49 47 46 46 58 58 54 48 48 50 36 38 44 37 33 26 24 26 24 21 20 17 16 13 15 16 14 12 11 11 9 9 11 11 11 11 12 13 15 17 21
50 52 52 50 51 52 50 55 52 55 50 50 53 62 60 55 58 51 41 33 39 42 33 32 28 25 27 24 24 21 18 14 15 16 14 12 11 10 9 9 9 10 12 13 14 15 16 19 22
55 56 56 56 57 60 55 56 57 62 59 52 51 62 64 61 63 56 51 45 42 36 37 37 33 29 27 27 27 25 20 18 16 15 14 12 11 11 11 11 12 13 14 13 16 18 19 21 25
54 56 59 59 59 60 60 59 58 63 64 60 56 59 67 67 69 62 46 54 52 48 40 38 35 32 30 29 27 27 26 22 18 17 14 13 12 12 12 14 17 21 20 18 20 22 24 25 29
57 58 60 62 62 65 67 66 62 62 64 65 59 59 66 72 72 71 56 50 57 62 49 40 41 39 35 31 29 28 25 23 22 18 18 18 16 19 18 21 21 20 22 22 21 24 26 28 31
46 47 45 52 56 63 68 71 71 65 68 64 64 60 64 73 75 77 70 61 55 48 43 45 41 44 41 35 32 31 28 29 27 24 24 20 19 21 21 23 23 23 22 22 21 25 28 32 35
21 24 27 28 38 50 61 71 73 70 67 64 65 64 67 70 77 76 77 69 64 46 40 45 48 45 48 41 40 36 35 34 31 31 30 29 30 30 27 23 20 19 19 22 24 26 29 31 34
16 16 15 22 32 39 48 62 61 63 69 70 70 70 71 71 77 75 78 77 69 64 51 58 45 44 46 45 45 45 43 39 37 32 30 30 30 29 26 21 21 21 22 24 25 28 31 33 36
21 22 22 23 30 33 43 46 44 51 62 70 68 72 75 75 76 71 77 79 80 59 58 37 37 39 42 47 46 44 44 41 42 35 34 33 32 28 24 22 20 21 24 24 27 31 34 36 39
22 25 25 21 27 36 39 42 35 35 45 57 64 70 80 77 75 67 71 83 89 81 67 58 27 32 44 47 44 42 46 46 43 39 38 36 36 28 25 25 22 24 27 26 29 34 33 33 35
24 24 23 20 24 34 36 41 34 36 38 38 55 65 78 80 74 68 67 70 79 75 78 80 58 46 43 44 45 44 47 49 46 42 45 40 33 32 28 26 26 27 26 27 30 28 31 37 37
24 26 25 22 22 30 33 37 35 35 38 35 34 54 71 86 78 68 69 71 70 66 63 78 72 60 54 47 46 44 51 55 50 47 46 42 38 33 31 30 30 28 25 25 27 30 34 37 35
23 22 27 30 24 30 34 33 33 33 36 34 37 40 62 82 82 71 71 70 72 69 64 66 66 56 50 46 47 51 52 48 51 45 50 47 40 37 34 34 34 27 24 26 31 33 35 34 34
28 25 31 30 32 29 31 35 27 27 30 28 26 38 48 74 91 79 73 69 70 72 66 64 67 56 48 39 39 44 50 50 55 57 64 58 43 38 42 31 32 26 24 25 28 30 32 29 25
31 31 34 34 33 32 32 32 26 20 31 34 34 34 36 61 82 88 79 73 70 71 71 71 71 59 50 37 37 34 42 45 59 63 59 46 45 34 31 36 33 28 21 22 25 32 31 24 21
33 37 37 34 34 36 23 23 19 11 19 28 32 32 33 43 73 86 87 75 72 70 74 76 73 65 58 41 38 39 37 37 43 52 45 48 40 45 37 40 36 26 27 29 25 29 24 22 23
35 34 38 38 36 37 30 29 25 14 15 22 24 29 30 30 49 80 90 85 75 70 73 80 78 70 63 47 38 39 39 42 41 35 47 40 40 47 49 48 41 35 31 40 31 27 20 21 23
27 31 32 37 39 40 40 36 28 23 24 29 26 25 26 29 32 54 86 91 79 76 73 80 80 73 66 50 40 44 44 39 42 44 33 30 23 39 40 55 40 22 16 19 25 23 20 23 24
25 23 25 30 32 39 40 39 36 34 26 27 30 28 31 34 36 33 56 92 87 83 75 78 79 76 67 52 46 45 41 40 41 39 35 35 21 15 18 11 5 7 15 19 20 19 21 24 26
28 29 30 27 31 33 37 42 41 36 31 30 33 33 31 34 34 39 41 63 92 86 83 76 79 75 65 56 49 47 41 40 35 42 32 22 29 38 22 3 6 12 15 18 17 18 23 25 28
27 28 27 28 28 33 36 32 35 31 31 26 30 30 32 32 27 30 41 53 78 89 84 79 79 77 70 58 52 47 41 39 40 39 25 38 39 19 27 12 10 12 16 14 18 22 24 27 31
24 20 19 22 28 32 35 32 31 28 28 33 31 28 32 34 37 33 41 47 65 91 89 87 81 81 69 59 51 48 44 41 35 29 29 30 31 24 22 12 12 13 14 16 19 22 26 30 32

GFSSGP_500_spd_174.txt.gz
Wind_Speed
38 36 34 32 32 29 20 14 15 22 29 31 32 30 28 23 20 16 15 12 6 13 7 13 13 11 11 10 5 3 3 4 4 5 6 5 4 4 5 5 4 3 3 3 2 2 4 5 5
33 35 39 41 40 35 26 20 19 26 32 31 34 32 29 25 22 14 11 11 19 23 22 18 11 11 12 11 7 4 2 1 2 4 6 7 4 4 4 3 2 3 4 3 3 5 5 5 5
30 31 32 35 37 37 35 31 30 31 34 36 37 32 33 28 25 18 14 8 15 25 27 18 15 13 12 9 7 6 3 2 1 2 5 6 5 3 3 2 3 5 5 5 5 5 5 7 6
30 33 35 36 32 28 28 34 42 40 40 40 38 39 36 32 30 24 20 15 12 24 23 19 18 17 15 13 10 8 6 4 4 4 5 5 5 3 3 2 4 5 6 6 5 6 7 8 7
34 35 36 34 33 28 29 31 38 47 46 44 41 42 41 40 35 33 26 18 17 26 22 18 18 16 17 15 12 11 9 7 6 6 6 5 5 5 5 4 4 6 6 6 6 8 7 7 9
37 38 39 37 36 34 33 34 37 42 49 51 46 43 45 43 40 38 35 31 26 27 26 21 20 19 19 17 15 13 12 9 9 8 6 6 7 7 7 7 7 7 8 8 9 9 8 9 11
39 41 42 41 41 40 40 38 38 41 44 52 52 46 46 48 44 42 41 36 35 35 34 32 25 23 22 19 19 18 15 12 9 8 6 7 7 9 9 9 9 9 10 10 10 10 11 12 13
38 40 42 43 44 44 44 46 43 42 46 46 54 52 48 47 50 48 47 44 39 37 34 34 30 27 26 23 20 19 17 13 11 8 7 8 8 9 9 9 11 10 10 12 13 12 13 13 16
43 45 44 45 46 47 46 52 51 49 46 48 49 57 54 51 52 52 52 51 47 42 38 34 31 29 28 24 23 19 17 14 12 9 9 11 11 9 9 10 11 11 12 11 12 12 14 16 20
47 48 49 48 48 51 49 48 51 53 52 49 52 51 58 55 55 56 56 53 53 48 45 42 35 32 30 26 24 19 17 15 12 10 11 12 12 12 12 12 13 12 12 12 13 14 16 18 23
51 52 53 53 53 52 51 52 51 53 55 54 54 56 54 61 58 61 59 60 50 53 48 46 42 36 33 28 24 20 19 16 14 12 13 14 14 14 14 13 13 12 11 14 15 16 19 22 25
53 56 57 56 57 58 58 58 56 56 56 57 57 56 60 57 63 64 65 58 52 53 49 47 50 43 37 31 28 22 21 19 19 18 17 17 18 17 17 16 14 14 15 19 22 24 24 27 29
51 53 54 56 57 60 61 63 64 62 62 61 61 59 61 65 64 67 68 63 54 51 50 48 49 49 42 37 30 25 26 24 23 23 21 21 20 18 17 15 16 17 20 23 24 24 26 28 31
48 49 50 51 54 57 61 63 66 66 69 66 65 62 64 68 67 69 72 69 64 54 48 50 51 50 51 42 34 29 27 25 25 26 25 24 21 20 21 22 20 20 22 22 23 24 25 28 31
42 40 38 41 45 48 57 61 64 68 70 71 71 66 66 69 73 71 74 74 71 65 55 51 56 59 49 39 37 34 32 30 29 30 28 26 23 23 22 23 23 25 22 24 24 22 25 28 32
23 20 18 20 22 27 33 44 45 52 61 69 70 69 68 73 75 77 72 76 74 69 66 57 58 59 62 45 39 37 34 34 34 31 30 30 32 28 25 27 29 22 23 25 25 24 25 28 33
23 21 21 20 26 29 31 26 22 32 39 52 66 69 67 73 77 79 77 74 74 74 70 64 63 54 53 43 47 45 41 36 37 33 37 33 36 31 30 31 30 21 23 24 24 25 26 30 32
25 23 23 20 22 26 26 24 26 30 37 33 46 63 65 72 78 78 79 77 77 76 76 67 72 55 35 46 51 48 45 42 42 40 39 39 38 34 33 29 29 25 26 25 23 25 28 31 35
26 25 24 22 25 25 26 25 25 25 30 36 30 44 59 64 77 79 78 76 73 77 77 72 74 57 46 54 43 44 42 40 37 42 46 42 42 39 35 34 33 27 27 26 24 27 29 34 36
25 28 26 24 24 32 31 26 27 28 25 28 32 32 42 59 72 82 77 66 73 71 73 74 63 53 49 39 36 43 44 46 44 45 46 45 45 44 40 39 41 32 29 28 26 28 31 34 33
27 27 24 25 23 29 36 29 31 30 29 24 25 33 36 48 63 77 82 72 66 69 70 67 56 56 50 44 35 20 31 34 38 42 46 47 48 44 49 45 45 35 27 29 25 25 27 28 35
28 25 28 30 32 31 33 37 32 28 28 21 22 30 37 37 55 68 81 81 66 68 69 58 63 64 68 47 34 40 35 38 45 51 51 50 49 54 59 48 46 42 36 25 22 21 26 37 37
28 31 33 35 37 39 41 42 34 27 20 27 27 28 36 43 47 57 68 85 77 64 65 59 65 72 76 68 50 52 45 42 47 52 51 51 43 57 65 59 52 47 37 26 26 27 41 37 44
31 34 36 38 39 39 38 39 30 19 20 26 28 29 29 39 41 52 52 68 85 68 59 59 54 61 68 57 61 53 48 45 46 48 55 45 49 55 56 55 53 48 40 34 29 30 41 46 45
33 35 35 36 34 33 36 37 28 22 14 17 21 20 33 39 41 43 47 54 67 78 63 57 57 57 62 62 56 50 44 39 47 41 40 42 43 55 59 58 56 48 48 38 31 29 33 36 31
32 28 32 35 34 35 35 31 31 30 26 28 24 20 21 25 37 43 40 43 56 76 71 59 57 60 58 61 55 52 47 38 36 37 36 39 29 50 54 55 30 36 21 36 18 23 27 29 26
31 30 30 33 33 39 36 34 30 29 26 25 29 30 26 27 31 40 38 35 43 61 79 63 60 57 58 63 61 54 46 38 40 40 37 39 47 24 22 25 19 14 7 16 19 26 26 23 25
28 29 30 30 34 39 33 31 30 27 25 27 29 32 27 29 31 33 33 34 39 48 76 73 61 59 58 62 63 57 49 45 42 40 39 33 30 23 22 22 17 9 1 14 23 27 22 23 25
25 25 30 29 28 32 33 27 26 23 23 24 26 34 33 31 33 36 38 35 38 40 63 79 65 62 60 61 68 62 53 48 42 37 35 30 28 16 21 26 14 3 9 19 24 22 21 23 26
21 25 26 24 28 32 34 32 27 27 22 23 23 30 31 34 34 36 37 39 39 40 49 74 79 63 61 61 68 63 57 49 42 36 29 24 18 23 26 17 9 10 16 18 20 21 22 25 28